User: anonymous   Login
Location: Whispering Pines Observatory
(39.4020°N, 104.7430°W)
Time: 14:42:09
(UTC-06:00)
Language:

MOS 1 Rocket - Orbit

View from above orbital plane
View from above orbital plane
View from above satellite
View from above satellite

Ground track
Ground track

The orbit data is extracted from the following two-line orbital elements,

1 17528U 87018B   17145.79563943 +.00000077 +00000-0 +26346-4 0  9990
2 17528 097.4501 105.3825 0152283 008.1445 022.2308 14.50773084576013
Epoch (UTC): 25 May 2017 19:05:43
Eccentricity: 0.0152283
inclination: 97.4501°
perigee height: 615 km
apogee height: 831 km
right ascension of ascending node: 105.3825°
argument of perigee: 8.1445°
revolutions per day: 14.50773084
mean anomaly at epoch: 22.2308°
orbit number at epoch: 57601

The dashed part of the orbit path shows where the satellite is in the earth's shadow,  

DLR